Погода в Паньчжихуа

Китай     23°02′14″N   102°34′30″E
темп.,
°C
ветер,
м/с
пор.,
м/с
влажн.,
%
обл.,
%
осадки,
мм/ч
давл.,
гПа
погр.,
м
2 декабря, чт
чт223:00+9в0098100 0.0 102111
02:00+8в009999 0.0 102112
05:00+7всв0110075 0.0 102114
08:00+7всв119978 0.0 102337
11:00+14вюв226991 0.0 1023762
14:00+15вюв1162100 0.0 10191132
17:00+13в1276100 0.0 1018248
20:00+11юв1185100 0.0 102031
3 декабря, пт
пт323:00+11в118768 0.0 102139
02:00+8св119423 0.0 102218
05:00+7ссв009818 0.0 102113
08:00+9в1190100 0.0 102369
11:00+14вюв126357 0.0 1023678
14:00+16юв125486 0.0 10181453
17:00+14юв137396 0.0 1018183
20:00+11вюв118628 0.0 102118
4 декабря, сб
сб423:00+8вюв00975 0.0 102311
02:00+7всв009898 0.0 102312
05:00+6в009894 0.0 102212
08:00+8в1292100 0.0 102391
11:00+11вюв127191 0.0 1023426
14:00+16юв125549 0.0 10181174
17:00+14юв1370100 0.0 1017295
20:00+11ююв1183100 0.0 102121
5 декабря, вс
вс523:00+8вюв0095100 0.0 102211
02:00+7в009690 0.0 102212
05:00+6св11978 0.0 102213
08:00+6ссв119877 0.0 102422
11:00+14всв12635 0.0 1023695
14:00+17всв225478 0.0 10181372
17:00+14в1174100 0.0 101852
20:00+12всв1184100 0.1 102115
6 декабря, пн
пн623:00+11св118773 0.0 102120
02:00+9ссв119436 0.0 102114
05:00+7с119888 0.0 102112
08:00+7с119860 0.0 102218
11:00+15всв116450 0.0 1021749
14:00+17в115599 0.0 10171535
17:00+14вюв1177100 0.0 101728
20:00+12юв1184100 0.0 101921